Regional Weather Roundup
Issued by NWS

Home | Current Version | Previous Version | Graphics & Text | Print | Product List | Glossary On
Versions: 1 2 3 4 5 6 7 8 9 10 11 12 13 14 15 16 17 18 19 20 21 22 23 24 25 26 27 28 29 30 31 32 33 34 35 36 37 38 39 40 41 42 43 44 45 46 47 48 49 50
000
ASUS43 KBIS 252320
RWRND

NORTH DAKOTA REGIONAL WEATHER ROUNDUP
NATIONAL WEATHER SERVICE BISMARCK ND
600 PM CDT SAT APR 25 2015

NOTE: "FAIR" INDICATES FEW OR NO CLOUDS BELOW 12,000 FEET WITH NO
SIGNIFICANT WEATHER AND/OR OBSTRUCTIONS TO VISIBILITY.


NDZ001>003-009>011-017-260000-
NORTHWEST NORTH DAKOTA

CITY           SKY/WX    TMP DP  RH WIND       PRES   REMARKS
WILLISTON      CLOUDY    56  43  61 SE12      29.74R
MINOT          CLOUDY    57  40  52 SE16      29.80S
MINOT AFB      CLOUDY    57  44  62 SE17      29.80R
$$

NDZ018>021-031>035-040>046-260000-
SOUTHWEST NORTH DAKOTA

CITY           SKY/WX    TMP DP  RH WIND       PRES   REMARKS
BISMARCK       CLOUDY    49  42  77 SE15      29.84R
DICKINSON      CLOUDY    49  42  77 S17       29.76R
GARRISON         N/A     51  42  71 S16       29.81R
HETTINGER ARPT CLOUDY    49  43  80 SE12      29.78R
$$

NDZ004>008-012>016-024-026-027-054-260000-
NORTHEAST NORTH DAKOTA

CITY           SKY/WX    TMP DP  RH WIND       PRES   REMARKS
GRAND FORKS    CLOUDY    62  38  40 S10       29.89R
GRND FRKS AFB  MOSUNNY   62  38  40 SW9       29.89R
DEVILS LAKE    CLOUDY    55  41  58 S12       29.88R
$$

NDZ022-023-025-028>030-036>039-047>053-260000-
SOUTHEAST NORTH DAKOTA

CITY           SKY/WX    TMP DP  RH WIND       PRES   REMARKS
FARGO          SUNNY     62  37  39 SE12      29.88S
JAMESTOWN      CLOUDY    51  41  68 SE13      29.87S
$$



USA.gov is the U.S. government's official web portal to all federal, state and local government web resources and services.